CCDAZ SCEL-SCPQ

Flight info

Callsign CCDAZ
Flight time 1h 32m
Altitude 41000
Route GELU5B GELUS UQ809 KEVET KEVE2C
Aircraft C25C/L-SDE2E3FGHRWXY/LB1

Departure

Time 2026-05-05 16:40
Airport Comodoro Arturo Merino Benítez International Airport (SCEL)

Arrival

Time 2026-05-05 18:12
Airport Mocopulli Airport (SCPQ)
Time Latitude Longitude Altitude Speed Heading
2026-05-05 16:27 -33.39223 -70.79204 1558 ft 0 kts 360°
2026-05-05 16:35 -33.39220 -70.79204 1558 ft 1 kts 360°
2026-05-05 16:35 -33.39209 -70.79186 1558 ft 5 kts 86°
2026-05-05 16:35 -33.39180 -70.79147 1558 ft 10 kts 358°
2026-05-05 16:35 -33.39100 -70.79152 1558 ft 12 kts 356°
2026-05-05 16:36 -33.39025 -70.79130 1558 ft 13 kts 75°
2026-05-05 16:36 -33.39020 -70.79014 1558 ft 16 kts 87°
2026-05-05 16:36 -33.38974 -70.78918 1558 ft 15 kts 355°
2026-05-05 16:36 -33.38851 -70.78925 1558 ft 19 kts 357°
2026-05-05 16:37 -33.38717 -70.78932 1558 ft 20 kts 357°
2026-05-05 16:37 -33.38637 -70.78886 1558 ft 13 kts 90°
2026-05-05 16:37 -33.38570 -70.78834 1558 ft 17 kts 356°
2026-05-05 16:37 -33.38469 -70.78793 1558 ft 18 kts 112°
2026-05-05 16:38 -33.38565 -70.78716 1558 ft 17 kts 147°
2026-05-05 16:38 -33.38663 -70.78642 1558 ft 18 kts 148°
2026-05-05 16:38 -33.38720 -70.78611 1557 ft 0 kts 179°
2026-05-05 16:39 -33.38726 -70.78611 1557 ft 8 kts 178°
2026-05-05 16:39 -33.38998 -70.78596 1559 ft 87 kts 177°
2026-05-05 16:40 -33.39906 -70.78553 1821 ft 155 kts 180°
2026-05-05 16:40 -33.41038 -70.78498 2658 ft 167 kts 178°
2026-05-05 16:40 -33.42275 -70.78425 3495 ft 193 kts 179°
2026-05-05 16:40 -33.43711 -70.78398 4367 ft 219 kts 187°
2026-05-05 16:41 -33.45095 -70.79256 5231 ft 240 kts 226°
2026-05-05 16:41 -33.46098 -70.80959 6139 ft 259 kts 242°
2026-05-05 16:41 -33.46992 -70.82902 6977 ft 278 kts 244°
2026-05-05 16:41 -33.47940 -70.84979 8041 ft 283 kts 243°
2026-05-05 16:42 -33.48951 -70.87040 9136 ft 289 kts 243°
2026-05-05 16:42 -33.49981 -70.89137 10249 ft 292 kts 244°
2026-05-05 16:42 -33.50993 -70.91229 11347 ft 296 kts 244°
2026-05-05 16:42 -33.52031 -70.93380 12368 ft 297 kts 244°
2026-05-05 16:43 -33.53085 -70.95567 13111 ft 312 kts 244°
2026-05-05 16:43 -33.54508 -70.97651 13330 ft 349 kts 222°
2026-05-05 16:43 -33.56658 -70.99153 13960 ft 360 kts 212°
2026-05-05 16:43 -33.58900 -71.00519 14809 ft 361 kts 210°
2026-05-05 16:44 -33.61176 -71.01829 15604 ft 363 kts 211°
2026-05-05 16:44 -33.63415 -71.03178 16380 ft 365 kts 212°
2026-05-05 16:44 -33.65688 -71.04581 17144 ft 367 kts 212°
2026-05-05 16:44 -33.67979 -71.05984 17907 ft 369 kts 212°
2026-05-05 16:45 -33.70280 -71.07370 18599 ft 371 kts 212°
2026-05-05 16:45 -33.72600 -71.08776 19235 ft 374 kts 213°
2026-05-05 16:45 -33.74900 -71.10181 19851 ft 377 kts 213°
2026-05-05 16:45 -33.77250 -71.11613 20521 ft 378 kts 213°
2026-05-05 16:46 -33.79608 -71.13049 21177 ft 381 kts 213°
2026-05-05 16:46 -33.81991 -71.14499 21811 ft 384 kts 213°
2026-05-05 16:46 -33.84383 -71.15958 22436 ft 387 kts 213°
2026-05-05 16:46 -33.86797 -71.17434 23063 ft 390 kts 214°
2026-05-05 16:47 -33.89195 -71.18897 23640 ft 393 kts 214°
2026-05-05 16:47 -33.91645 -71.20395 24124 ft 395 kts 214°
2026-05-05 16:47 -33.94107 -71.21901 24624 ft 397 kts 214°
2026-05-05 16:47 -33.96565 -71.23403 25081 ft 399 kts 214°
2026-05-05 16:48 -33.98218 -71.24415 25425 ft 400 kts 214°
2026-05-05 16:48 -34.00715 -71.25946 25873 ft 403 kts 214°
2026-05-05 16:48 -34.03220 -71.27481 26298 ft 405 kts 214°
2026-05-05 16:48 -34.05753 -71.29034 26678 ft 407 kts 214°
2026-05-05 16:49 -34.08257 -71.30574 27074 ft 408 kts 214°
2026-05-05 16:49 -34.10803 -71.32134 27451 ft 410 kts 214°
2026-05-05 16:49 -34.13351 -71.33704 27810 ft 412 kts 214°
2026-05-05 16:49 -34.15916 -71.35278 28218 ft 412 kts 214°
2026-05-05 16:50 -34.18434 -71.36828 28715 ft 409 kts 214°
2026-05-05 16:50 -34.20970 -71.38388 29179 ft 408 kts 215°
2026-05-05 16:50 -34.23505 -71.39954 29683 ft 406 kts 215°
2026-05-05 16:50 -34.26005 -71.41495 30151 ft 405 kts 215°
2026-05-05 16:51 -34.28513 -71.43043 30547 ft 404 kts 215°
2026-05-05 16:51 -34.31004 -71.44580 30833 ft 405 kts 215°
2026-05-05 16:51 -34.33530 -71.46148 31044 ft 409 kts 215°
2026-05-05 16:51 -34.36075 -71.47716 31405 ft 407 kts 215°
2026-05-05 16:52 -34.38569 -71.49260 31771 ft 406 kts 215°
2026-05-05 16:52 -34.41092 -71.50821 32136 ft 405 kts 216°
2026-05-05 16:52 -34.43616 -71.52387 32494 ft 405 kts 216°
2026-05-05 16:52 -34.46089 -71.53920 32837 ft 404 kts 216°
2026-05-05 16:53 -34.48597 -71.55478 33183 ft 403 kts 216°
2026-05-05 16:53 -34.51094 -71.57026 33507 ft 402 kts 216°
2026-05-05 16:53 -34.53564 -71.58563 33856 ft 401 kts 216°
2026-05-05 16:53 -34.56055 -71.60111 34155 ft 400 kts 216°
2026-05-05 16:54 -34.58538 -71.61656 34461 ft 399 kts 216°
2026-05-05 16:54 -34.60981 -71.63174 34765 ft 397 kts 217°
2026-05-05 16:54 -34.63454 -71.64713 35040 ft 397 kts 217°
2026-05-05 16:54 -34.65912 -71.66247 35304 ft 395 kts 217°
2026-05-05 16:55 -34.68336 -71.67758 35589 ft 394 kts 217°
2026-05-05 16:55 -34.70780 -71.69281 35856 ft 393 kts 217°
2026-05-05 16:55 -34.73188 -71.70787 36106 ft 392 kts 217°
2026-05-05 16:55 -34.75618 -71.72304 36360 ft 391 kts 217°
2026-05-05 16:56 -34.78047 -71.73822 36627 ft 390 kts 218°
2026-05-05 16:56 -34.80427 -71.75312 36881 ft 389 kts 218°
2026-05-05 16:56 -34.82832 -71.76816 37130 ft 387 kts 218°
2026-05-05 16:56 -34.85244 -71.78327 37395 ft 386 kts 218°
2026-05-05 16:57 -34.87605 -71.79808 37640 ft 386 kts 218°
2026-05-05 16:57 -34.90002 -71.81311 37904 ft 384 kts 218°
2026-05-05 16:57 -34.92361 -71.82792 38166 ft 384 kts 218°
2026-05-05 16:57 -34.94751 -71.84294 38416 ft 383 kts 218°
2026-05-05 16:58 -34.97124 -71.85783 38694 ft 381 kts 218°
2026-05-05 16:58 -34.99462 -71.87252 38908 ft 381 kts 218°
2026-05-05 16:58 -35.01828 -71.88747 39102 ft 380 kts 218°
2026-05-05 16:58 -35.04153 -71.90208 39305 ft 380 kts 218°
2026-05-05 16:59 -35.06511 -71.91694 39504 ft 380 kts 218°
2026-05-05 16:59 -35.08846 -71.93166 39718 ft 380 kts 218°
2026-05-05 16:59 -35.11199 -71.94650 39938 ft 380 kts 218°
2026-05-05 16:59 -35.13555 -71.96139 40156 ft 380 kts 218°
2026-05-05 17:00 -35.15904 -71.97622 40388 ft 379 kts 218°
2026-05-05 17:00 -35.18222 -71.99087 40607 ft 378 kts 218°
2026-05-05 17:00 -35.20573 -72.00575 40824 ft 377 kts 218°
2026-05-05 17:00 -35.22888 -72.02041 40907 ft 380 kts 218°
2026-05-05 17:01 -35.27622 -72.05041 40964 ft 382 kts 218°
2026-05-05 17:01 -35.32366 -72.08048 40963 ft 383 kts 217°
2026-05-05 17:02 -35.37069 -72.11043 40964 ft 384 kts 217°
2026-05-05 17:02 -35.41814 -72.14061 40970 ft 384 kts 217°
2026-05-05 17:03 -35.46555 -72.17083 40962 ft 384 kts 217°
2026-05-05 17:03 -35.51285 -72.20103 40955 ft 384 kts 217°
2026-05-05 17:04 -35.56028 -72.23135 40953 ft 383 kts 217°
2026-05-05 17:04 -35.60766 -72.26167 40971 ft 383 kts 217°
2026-05-05 17:05 -35.65483 -72.29192 40967 ft 384 kts 217°
2026-05-05 17:05 -35.70214 -72.32225 40963 ft 384 kts 217°
2026-05-05 17:06 -35.74947 -72.35268 40961 ft 384 kts 217°
2026-05-05 17:06 -35.79683 -72.38316 40963 ft 383 kts 217°
2026-05-05 17:07 -35.84402 -72.41357 40960 ft 383 kts 217°
2026-05-05 17:07 -35.89281 -72.44171 40963 ft 393 kts 210°
2026-05-05 17:08 -35.94586 -72.46069 40959 ft 400 kts 205°
2026-05-05 17:08 -35.99942 -72.47897 40962 ft 400 kts 206°
2026-05-05 17:09 -36.05318 -72.49718 40956 ft 400 kts 206°
2026-05-05 17:09 -36.10655 -72.51534 40954 ft 399 kts 206°
2026-05-05 17:10 -36.16008 -72.53355 40945 ft 399 kts 206°
2026-05-05 17:10 -36.21382 -72.55188 40946 ft 400 kts 206°
2026-05-05 17:11 -36.26752 -72.57022 40942 ft 400 kts 206°
2026-05-05 17:11 -36.32098 -72.58851 40941 ft 400 kts 206°
2026-05-05 17:12 -36.37466 -72.60690 40939 ft 401 kts 206°
2026-05-05 17:12 -36.42856 -72.62538 40945 ft 402 kts 206°
2026-05-05 17:13 -36.48256 -72.64393 40940 ft 402 kts 206°
2026-05-05 17:13 -36.53650 -72.66248 40932 ft 403 kts 206°
2026-05-05 17:14 -36.59052 -72.68109 40933 ft 404 kts 206°
2026-05-05 17:14 -36.64494 -72.69985 40932 ft 404 kts 206°
2026-05-05 17:15 -36.69913 -72.71857 40934 ft 405 kts 206°
2026-05-05 17:15 -36.75353 -72.73739 40938 ft 405 kts 206°
2026-05-05 17:16 -36.80796 -72.75626 40935 ft 406 kts 206°
2026-05-05 17:16 -36.86236 -72.77514 40935 ft 407 kts 207°
2026-05-05 17:17 -36.91681 -72.79406 40930 ft 407 kts 207°
2026-05-05 17:17 -36.97122 -72.81298 40931 ft 408 kts 207°
2026-05-05 17:18 -37.02614 -72.83213 40928 ft 408 kts 207°
2026-05-05 17:18 -37.08064 -72.85115 40923 ft 408 kts 207°
2026-05-05 17:19 -37.13529 -72.87026 40925 ft 409 kts 207°
2026-05-05 17:19 -37.19032 -72.88952 40925 ft 409 kts 207°
2026-05-05 17:20 -37.24494 -72.90867 40926 ft 410 kts 207°
2026-05-05 17:20 -37.30005 -72.92801 40921 ft 410 kts 207°
2026-05-05 17:21 -37.35493 -72.94733 40919 ft 410 kts 207°
2026-05-05 17:22 -37.42760 -72.97294 40977 ft 414 kts 207°
2026-05-05 17:22 -37.48340 -72.99265 40911 ft 419 kts 207°
2026-05-05 17:23 -37.53960 -73.01249 40905 ft 422 kts 207°
2026-05-05 17:23 -37.59639 -73.03261 40901 ft 424 kts 207°
2026-05-05 17:24 -37.65318 -73.05274 40899 ft 425 kts 207°
2026-05-05 17:24 -37.70994 -73.07289 40902 ft 425 kts 207°
2026-05-05 17:25 -37.76804 -73.08969 40885 ft 437 kts 198°
2026-05-05 17:25 -37.83026 -73.09251 40883 ft 450 kts 189°
2026-05-05 17:26 -37.89280 -73.09207 40881 ft 450 kts 190°
2026-05-05 17:26 -37.95557 -73.09165 40883 ft 454 kts 189°
2026-05-05 17:27 -38.01904 -73.09113 40872 ft 459 kts 189°
2026-05-05 17:27 -38.08290 -73.09065 40874 ft 460 kts 189°
2026-05-05 17:28 -38.14673 -73.09016 40868 ft 459 kts 189°
2026-05-05 17:28 -38.21049 -73.08969 40876 ft 457 kts 189°
2026-05-05 17:29 -38.27402 -73.08921 40866 ft 456 kts 189°
2026-05-05 17:29 -38.33740 -73.08875 40861 ft 455 kts 189°
2026-05-05 17:30 -38.40042 -73.08823 40857 ft 453 kts 189°
2026-05-05 17:30 -38.46326 -73.08779 40851 ft 451 kts 189°
2026-05-05 17:31 -38.52619 -73.08729 40847 ft 450 kts 189°
2026-05-05 17:31 -38.58848 -73.08677 40846 ft 449 kts 189°
2026-05-05 17:32 -38.65122 -73.08627 40842 ft 450 kts 189°
2026-05-05 17:32 -38.71368 -73.08574 40839 ft 450 kts 189°
2026-05-05 17:33 -38.77598 -73.08523 40842 ft 449 kts 189°
2026-05-05 17:33 -38.83854 -73.08471 40833 ft 448 kts 189°
2026-05-05 17:34 -38.90098 -73.08420 40836 ft 448 kts 189°
2026-05-05 17:34 -38.96313 -73.08369 40836 ft 447 kts 189°
2026-05-05 17:35 -39.02524 -73.08316 40839 ft 448 kts 189°
2026-05-05 17:35 -39.07704 -73.08273 40831 ft 448 kts 189°
2026-05-05 17:36 -39.13924 -73.08221 40832 ft 447 kts 189°
2026-05-05 17:36 -39.20163 -73.08169 40831 ft 446 kts 189°
2026-05-05 17:37 -39.26364 -73.08117 40831 ft 446 kts 189°
2026-05-05 17:37 -39.32561 -73.08204 40831 ft 445 kts 190°
2026-05-05 17:38 -39.38763 -73.08263 40831 ft 447 kts 189°
2026-05-05 17:38 -39.44987 -73.08325 40834 ft 449 kts 189°
2026-05-05 17:39 -39.51273 -73.08394 40834 ft 451 kts 189°
2026-05-05 17:39 -39.57538 -73.08454 40839 ft 451 kts 189°
2026-05-05 17:40 -39.63787 -73.08522 40837 ft 451 kts 189°
2026-05-05 17:40 -39.69942 -73.09189 40838 ft 438 kts 199°
2026-05-05 17:41 -39.75954 -73.10560 40838 ft 439 kts 198°
2026-05-05 17:41 -39.82019 -73.11928 40828 ft 445 kts 199°
2026-05-05 17:42 -39.88113 -73.13312 40824 ft 443 kts 199°
2026-05-05 17:42 -39.94176 -73.14688 40819 ft 441 kts 199°
2026-05-05 17:43 -40.00220 -73.16069 40811 ft 441 kts 199°
2026-05-05 17:43 -40.06257 -73.17444 40800 ft 438 kts 199°
2026-05-05 17:44 -40.12224 -73.18810 40809 ft 439 kts 199°
2026-05-05 17:44 -40.18248 -73.20187 40805 ft 442 kts 198°
2026-05-05 17:45 -40.24333 -73.21581 40801 ft 444 kts 199°
2026-05-05 17:45 -40.30399 -73.22973 40811 ft 443 kts 198°
2026-05-05 17:46 -40.36499 -73.24375 40813 ft 442 kts 198°
2026-05-05 17:46 -40.42516 -73.25763 40814 ft 441 kts 198°
2026-05-05 17:47 -40.48551 -73.27155 40825 ft 442 kts 198°
2026-05-05 17:47 -40.54632 -73.28561 40826 ft 442 kts 198°
2026-05-05 17:48 -40.60651 -73.29956 40827 ft 441 kts 198°
2026-05-05 17:48 -40.66720 -73.31368 40486 ft 447 kts 199°
2026-05-05 17:48 -40.69764 -73.32079 39967 ft 449 kts 199°
2026-05-05 17:49 -40.72875 -73.32796 39457 ft 450 kts 199°
2026-05-05 17:49 -40.75937 -73.33507 38965 ft 451 kts 199°
2026-05-05 17:49 -40.79052 -73.34235 38471 ft 452 kts 200°
2026-05-05 17:49 -40.82142 -73.34961 37869 ft 456 kts 200°
2026-05-05 17:50 -40.85301 -73.35702 37267 ft 463 kts 200°
2026-05-05 17:50 -40.88479 -73.36444 36700 ft 471 kts 200°
2026-05-05 17:50 -40.91752 -73.37209 36135 ft 478 kts 200°
2026-05-05 17:50 -40.95029 -73.37975 35594 ft 485 kts 200°
2026-05-05 17:51 -40.98385 -73.38762 35063 ft 490 kts 200°
2026-05-05 17:51 -41.01750 -73.39551 34535 ft 496 kts 200°
2026-05-05 17:51 -41.05171 -73.40355 34017 ft 500 kts 201°
2026-05-05 17:51 -41.08592 -73.41160 33473 ft 504 kts 201°
2026-05-05 17:52 -41.12077 -73.41984 32884 ft 507 kts 200°
2026-05-05 17:52 -41.15560 -73.42803 32328 ft 505 kts 200°
2026-05-05 17:52 -41.18955 -73.43589 31777 ft 495 kts 200°
2026-05-05 17:52 -41.22357 -73.44403 31230 ft 493 kts 200°
2026-05-05 17:53 -41.25702 -73.45205 30704 ft 493 kts 200°
2026-05-05 17:53 -41.29102 -73.46011 30178 ft 493 kts 199°
2026-05-05 17:53 -41.32441 -73.46795 29627 ft 490 kts 199°
2026-05-05 17:53 -41.35791 -73.47587 29020 ft 484 kts 199°
2026-05-05 17:54 -41.39077 -73.48370 28428 ft 479 kts 199°
2026-05-05 17:54 -41.42358 -73.49155 27840 ft 475 kts 198°
2026-05-05 17:54 -41.45602 -73.49929 27244 ft 471 kts 198°
2026-05-05 17:54 -41.48778 -73.50684 26671 ft 468 kts 197°
2026-05-05 17:55 -41.52001 -73.51457 26093 ft 467 kts 197°
2026-05-05 17:55 -41.55162 -73.52211 25532 ft 465 kts 197°
2026-05-05 17:55 -41.58356 -73.52976 24978 ft 463 kts 196°
2026-05-05 17:55 -41.61541 -73.53737 24434 ft 461 kts 195°
2026-05-05 17:56 -41.64656 -73.54482 23905 ft 450 kts 195°
2026-05-05 17:56 -41.67713 -73.55211 23303 ft 438 kts 195°
2026-05-05 17:56 -41.70651 -73.55919 22578 ft 431 kts 195°
2026-05-05 17:56 -41.73600 -73.56632 21855 ft 425 kts 195°
2026-05-05 17:57 -41.76467 -73.57323 21164 ft 419 kts 194°
2026-05-05 17:57 -41.79335 -73.58012 20478 ft 414 kts 194°
2026-05-05 17:57 -41.82172 -73.58694 19809 ft 410 kts 194°
2026-05-05 17:57 -41.84975 -73.59373 19155 ft 407 kts 194°
2026-05-05 17:58 -41.87744 -73.60040 18519 ft 403 kts 194°
2026-05-05 17:58 -41.90472 -73.60701 17866 ft 399 kts 194°
2026-05-05 17:58 -41.93182 -73.61354 17152 ft 397 kts 194°
2026-05-05 17:58 -41.95881 -73.62011 16469 ft 388 kts 194°
2026-05-05 17:59 -41.98521 -73.62644 15787 ft 381 kts 193°
2026-05-05 17:59 -42.01185 -73.62787 15096 ft 388 kts 176°
2026-05-05 17:59 -42.03877 -73.62390 14444 ft 387 kts 176°
2026-05-05 17:59 -42.06520 -73.62035 13811 ft 384 kts 176°
2026-05-05 18:00 -42.09135 -73.61674 13129 ft 376 kts 176°
2026-05-05 18:00 -42.11727 -73.61314 12421 ft 368 kts 175°
2026-05-05 18:00 -42.14224 -73.60974 11728 ft 350 kts 176°
2026-05-05 18:00 -42.16587 -73.60647 11060 ft 338 kts 175°
2026-05-05 18:01 -42.18872 -73.60337 10392 ft 319 kts 175°
2026-05-05 18:01 -42.21033 -73.60036 9737 ft 304 kts 175°
2026-05-05 18:01 -42.23068 -73.59759 9026 ft 290 kts 175°
2026-05-05 18:01 -42.25056 -73.59484 8357 ft 282 kts 174°
2026-05-05 18:02 -42.27011 -73.59221 8011 ft 289 kts 174°
2026-05-05 18:02 -42.29039 -73.58935 7626 ft 292 kts 174°
2026-05-05 18:02 -42.31034 -73.58663 7247 ft 288 kts 174°
2026-05-05 18:02 -42.33001 -73.58390 6876 ft 280 kts 174°
2026-05-05 18:03 -42.34929 -73.58140 6522 ft 274 kts 176°
2026-05-05 18:03 -42.36801 -73.58320 6156 ft 269 kts 186°
2026-05-05 18:03 -42.38671 -73.58520 5806 ft 265 kts 184°
2026-05-05 18:03 -42.40500 -73.58709 5452 ft 261 kts 184°
2026-05-05 18:04 -42.42287 -73.58901 5122 ft 259 kts 184°
2026-05-05 18:04 -42.44087 -73.59103 4786 ft 257 kts 184°
2026-05-05 18:04 -42.45838 -73.59300 4444 ft 253 kts 184°
2026-05-05 18:04 -42.47547 -73.59486 4129 ft 238 kts 184°
2026-05-05 18:05 -42.49164 -73.59666 3825 ft 226 kts 184°
2026-05-05 18:05 -42.50701 -73.59833 3530 ft 215 kts 183°
2026-05-05 18:05 -42.52164 -73.60087 3263 ft 218 kts 195°
2026-05-05 18:05 -42.53372 -73.61353 3066 ft 223 kts 233°
2026-05-05 18:06 -42.53838 -73.63262 3033 ft 212 kts 270°
2026-05-05 18:06 -42.53793 -73.64545 3023 ft 199 kts 275°
2026-05-05 18:06 -42.53643 -73.66923 3019 ft 180 kts 276°
2026-05-05 18:06 -42.53533 -73.68599 3017 ft 179 kts 276°
2026-05-05 18:07 -42.53428 -73.70279 3025 ft 178 kts 276°
2026-05-05 18:07 -42.53043 -73.71838 3020 ft 176 kts 307°
2026-05-05 18:07 -42.52168 -73.72980 3021 ft 177 kts 334°
2026-05-05 18:07 -42.50984 -73.73423 3025 ft 177 kts
2026-05-05 18:08 -42.49751 -73.73295 3027 ft 176 kts
2026-05-05 18:08 -42.48609 -73.73182 2998 ft 158 kts
2026-05-05 18:08 -42.47548 -73.73061 2992 ft 152 kts
2026-05-05 18:08 -42.46476 -73.72941 2876 ft 156 kts
2026-05-05 18:09 -42.45391 -73.72820 2668 ft 152 kts
2026-05-05 18:09 -42.44386 -73.72714 2469 ft 135 kts
2026-05-05 18:09 -42.43525 -73.72622 2294 ft 120 kts 11°
2026-05-05 18:09 -42.42712 -73.72526 2121 ft 113 kts 10°
2026-05-05 18:10 -42.41947 -73.72451 1972 ft 110 kts 10°
2026-05-05 18:10 -42.41180 -73.72362 1822 ft 109 kts
2026-05-05 18:10 -42.40434 -73.72286 1670 ft 106 kts
2026-05-05 18:10 -42.39686 -73.72185 1526 ft 114 kts 11°
2026-05-05 18:11 -42.38876 -73.72105 1361 ft 116 kts
2026-05-05 18:11 -42.38067 -73.72008 1194 ft 118 kts
2026-05-05 18:11 -42.37256 -73.71920 1039 ft 117 kts
2026-05-05 18:11 -42.36439 -73.71833 874 ft 118 kts
2026-05-05 18:12 -42.35623 -73.71740 716 ft 117 kts
2026-05-05 18:12 -42.34819 -73.71652 560 ft 115 kts
2026-05-05 18:12 -42.34136 -73.71579 516 ft 69 kts
2026-05-05 18:12 -42.33866 -73.71549 512 ft 17 kts
2026-05-05 18:13 -42.33751 -73.71536 510 ft 17 kts
2026-05-05 18:13 -42.33631 -73.71523 506 ft 17 kts
2026-05-05 18:13 -42.33513 -73.71510 504 ft 17 kts
2026-05-05 18:13 -42.33394 -73.71496 501 ft 18 kts
2026-05-05 18:14 -42.33268 -73.71483 494 ft 19 kts
2026-05-05 18:14 -42.33173 -73.71457 493 ft 6 kts 20°
2026-05-05 18:14 -42.33144 -73.71474 495 ft 2 kts 281°
2026-05-05 18:14 -42.33183 -73.71497 488 ft 12 kts 172°
2026-05-05 18:15 -42.33316 -73.71489 498 ft 16 kts 185°
2026-05-05 18:15 -42.33428 -73.71499 503 ft 19 kts 182°
2026-05-05 18:15 -42.33570 -73.71513 505 ft 23 kts 187°
2026-05-05 18:15 -42.33731 -73.71534 509 ft 21 kts 185°
2026-05-05 18:16 -42.33859 -73.71547 512 ft 16 kts 184°
2026-05-05 18:16 -42.33960 -73.71556 513 ft 13 kts 185°
2026-05-05 18:16 -42.34044 -73.71568 514 ft 12 kts 185°
2026-05-05 18:16 -42.34124 -73.71578 515 ft 14 kts 185°
2026-05-05 18:17 -42.34253 -73.71592 517 ft 23 kts 184°
2026-05-05 18:17 -42.34419 -73.71625 520 ft 24 kts 200°
2026-05-05 18:17 -42.34534 -73.71753 523 ft 19 kts 227°
2026-05-05 18:17 -42.34624 -73.71895 525 ft 21 kts 229°
2026-05-05 18:18 -42.34727 -73.71999 527 ft 17 kts 186°
2026-05-05 18:18 -42.34831 -73.72013 528 ft 10 kts 200°
2026-05-05 18:18 -42.34842 -73.72056 531 ft 5 kts 298°
2026-05-05 18:18 -42.34828 -73.72087 529 ft 3 kts 274°
2026-05-05 18:19 -42.34835 -73.72094 529 ft 4 kts 195°
2026-05-05 18:19 -42.34839 -73.72095 529 ft 0 kts 195°